Location: Sweet Grass
(48.9965°N, 111.9649°W)
Time: 07:08:36
(UTC+00:00)

RESURS DK-1 - Visible Passes

Search period start: 21 May 2024 00:00
Search period end: 31 May 2024 00:00
Orbit: 543 x 547 km, 69.9° (Epoch: 20 May)

Date Brightness Start Highest point End Pass type
(mag) Time Alt. Az. Time Alt. Az. Time Alt. Az.
21 May 5.6 08:39:34 10° N 08:41:27 13° NE 08:43:18 10° ENE visible
21 May 2.7 10:15:54 10° NNW 10:19:58 69° ENE 10:24:01 10° SE visible
22 May 5.4 08:33:07 10° N 08:35:21 14° NE 08:37:36 10° ENE visible
22 May 2.4 10:09:41 10° NNW 10:13:46 82° ENE 10:17:50 10° SSE visible
23 May 5.3 08:26:42 10° N 08:29:15 16° NE 08:31:49 10° E visible
23 May 2.2 10:03:28 10° NNW 10:07:34 84° WSW 10:11:37 10° SSE visible
24 May 5.1 08:20:18 10° N 08:23:08 18° NE 08:25:58 10° E visible
24 May 2.2 09:57:16 10° NW 10:01:20 70° WSW 10:05:22 10° SSE visible
25 May 4.9 08:13:55 10° N 08:17:00 20° NE 08:20:03 10° E visible
25 May 2.3 09:51:05 10° NW 09:55:05 59° WSW 09:59:04 10° SSE visible
26 May 4.7 08:07:34 10° N 08:10:50 23° NE 08:14:06 10° E visible
26 May 2.5 09:44:53 10° NW 09:48:49 49° WSW 09:52:33 11° S visible
27 May 4.4 08:01:13 10° N 08:04:40 26° NE 08:08:06 10° ESE visible
27 May 2.8 09:38:42 10° NW 09:42:32 41° WSW 09:45:13 17° S visible
28 May 4.1 07:54:52 10° NNW 07:58:28 29° NE 08:02:03 10° ESE visible
28 May 3.0 09:32:32 10° NW 09:36:14 34° WSW 09:38:08 22° SSW visible
29 May 3.8 07:48:31 10° NNW 07:52:15 34° NE 07:55:40 12° ESE visible
29 May 3.3 09:26:23 10° NW 09:29:55 29° WSW 09:31:13 24° SW visible
30 May 3.5 07:42:11 10° NNW 07:46:02 39° NE 07:48:51 16° ESE visible
30 May 3.5 09:20:15 10° NW 09:23:35 25° WSW 09:24:24 23° SW visible
